Everett, WA

8:10 AM PST on December 10, 2019 (GMT -0800)
Snohomish County

Weather History for KPAE - July, 2019

Change the Weather History Date:

Monday, July 22, 2019

  Actual Average Record
Temperature  
Mean Temperature 67 °F -  
Max Temperature 77 °F 74 °F 89 °F (1978)
Min Temperature 59 °F 54 °F 48 °F (1968)
Cooling Degree Days 2    
Growing Degree Days 17 (Base 50)    
Moisture  
Dew Point 51 °F    
Average Humidity 61    
Maximum Humidity 81    
Minimum Humidity 46    
Precipitation  
Precipitation 0.00 in - - ()
Sea Level Pressure  
Sea Level Pressure 30.04 in    
Wind  
Wind Speed 5 mph (NW)    
Max Wind Speed 12 mph    
Max Gust Speed 20 mph    
Visibility 10 miles    
Events      
Averages and records for this station are not official NWS values.
T = Trace of Precipitation, MM = Missing Value Source: NWS Daily Summary

Daily Weather History Graph

Daily Weather History Graph

Search for Another Location

Airport or City:

Astronomy

Jul. 22, 2019 Rise Set
Actual Time 5:33 AM PDT 8:57 PM PDT
Civil Twilight 4:55 AM PDT 9:35 PM PDT
Nautical Twilight 4:04 AM PDT 10:25 PM PDT
Astronomical Twilight 2:58 AM PDT 11:30 PM PDT
Moon 11:56 PM PDT (7/22) 11:16 AM PDT (7/22)
Length of Visible Light 16h 40m
Length of Day
15h 24m
Waning Gibbous, 71% of the Moon is Illuminated
Jul 22
Waning Gibbous
Jul 24
Last Quarter
Jul 31
New
Aug 7
First Quarter
Aug 15
Full

Hourly Weather History & Observations

Time (PDT) Temp. Dew Point Humidity Pressure Visibility Wind Dir Wind Speed Gust Speed Precip Events Conditions
12:53 AM 61.0 °F 46.0 °F 58% 29.97 in 10.0 mi NNE 5.8 mph - N/A   Clear
1:53 AM 60.1 °F 46.0 °F 60% 29.98 in 10.0 mi Calm Calm - N/A   Clear
2:53 AM 60.1 °F 46.0 °F 60% 29.99 in 10.0 mi Calm Calm - N/A   Clear
3:53 AM 60.1 °F 44.1 °F 55% 29.98 in 10.0 mi NE 4.6 mph - N/A   Clear
4:53 AM 60.1 °F 43.0 °F 53% 29.99 in 10.0 mi Calm Calm - N/A   Clear
5:53 AM 59.0 °F 45.0 °F 60% 29.99 in 10.0 mi Calm Calm - N/A   Clear
6:53 AM 60.1 °F 45.0 °F 57% 30.01 in 10.0 mi WSW 3.5 mph - N/A   Clear
8:53 AM 66.0 °F 46.9 °F 50% 30.04 in 10.0 mi SSE 5.8 mph - N/A   Clear
9:53 AM 64.9 °F 54.0 °F 68% 30.05 in 10.0 mi West 5.8 mph - N/A   Clear
10:53 AM 66.0 °F 53.1 °F 63% 30.05 in 10.0 mi West 6.9 mph - N/A   Clear
11:53 AM 68.0 °F 53.1 °F 59% 30.06 in 10.0 mi SW 9.2 mph - N/A   Clear
12:53 PM 71.1 °F 54.0 °F 55% 30.06 in 10.0 mi WSW 9.2 mph - N/A   Clear
1:53 PM 71.1 °F 54.0 °F 55% 30.06 in 10.0 mi West 10.4 mph - N/A   Clear
2:53 PM 73.9 °F 53.1 °F 48% 30.07 in 10.0 mi West 10.4 mph 19.6 mph N/A   Clear
3:53 PM 75.0 °F 53.1 °F 46% 30.06 in 10.0 mi West 8.1 mph - N/A   Clear
4:53 PM 73.0 °F 52.0 °F 48% 30.06 in 10.0 mi North 8.1 mph - N/A   Clear
5:53 PM 70.0 °F 54.0 °F 57% 30.06 in 10.0 mi North 11.5 mph - N/A   Clear
6:53 PM 66.9 °F 55.0 °F 66% 30.06 in 10.0 mi North 9.2 mph 17.3 mph N/A   Clear
7:53 PM 64.0 °F 55.0 °F 73% 30.06 in 10.0 mi North 8.1 mph - N/A   Clear
8:53 PM 62.1 °F 55.9 °F 80% 30.06 in 10.0 mi North 8.1 mph - N/A   Clear
9:53 PM 62.1 °F 55.9 °F 80% 30.07 in 10.0 mi North 5.8 mph - N/A   Clear
10:53 PM 62.1 °F 55.0 °F 78% 30.07 in 10.0 mi NNE 6.9 mph - N/A   Clear
11:53 PM 61.0 °F 55.0 °F 81% 30.07 in 10.0 mi NNE 6.9 mph - N/A   Clear